Location: Newark
(31.5350°N, 35.0986°E)
Time: 07:46:53
(UTC+00:00)

Tiros 1 - All Passes

Search period start: 22 September 2019 00:00
Search period end: 02 October 2019 00:00
Orbit: 630 x 664 km, 48.4° (Epoch: 21 September)

Date Brightness Start Highest point End Pass type
(mag) Time Alt. Az. Time Alt. Az. Time Alt. Az.
22 Sep - 08:18:46 10° SSW 08:23:17 43° SE 08:27:47 10° ENE daylight
22 Sep - 10:01:19 10° W 10:05:34 31° NNW 10:09:47 10° NNE daylight
22 Sep - 11:47:22 10° NNW 11:48:57 11° NNW 11:50:32 10° N daylight
22 Sep - 13:31:54 10° N 13:32:58 11° N 13:34:02 10° NNE daylight
22 Sep - 15:12:30 10° NNW 15:16:28 27° NNE 15:20:24 10° E daylight
22 Sep - 16:54:20 10° WNW 16:58:50 52° SW 17:03:18 10° SSE visible
23 Sep - 07:04:47 10° SSE 07:07:31 15° SE 07:10:16 10° E daylight
23 Sep - 08:44:30 10° SW 08:49:16 75° NW 08:54:02 10° NE daylight
23 Sep - 10:28:51 10° WNW 10:32:05 18° NNW 10:35:19 10° NNE daylight
23 Sep - 13:57:04 10° NNW 13:59:49 15° NNE 14:02:31 10° NE daylight
23 Sep - 15:38:12 10° NW 15:42:47 56° NE 15:47:20 10° ESE daylight
23 Sep - 17:21:18 10° W 17:24:39 20° SW 17:27:58 10° S visible
24 Sep - 07:28:50 10° SSW 07:33:18 39° SE 07:37:43 10° ENE daylight
24 Sep - 09:11:11 10° W 09:15:31 34° NNW 09:19:50 10° NNE daylight
24 Sep - 10:57:04 10° NW 10:58:51 12° NNW 11:00:39 10° N daylight
24 Sep - 12:41:59 10° N 12:42:52 10° N 12:43:45 10° NNE daylight
24 Sep - 14:22:32 10° NNW 14:26:26 25° NNE 14:30:17 10° E daylight
24 Sep - 16:04:17 10° WNW 16:08:51 58° SW 16:13:22 10° SE visible
25 Sep - 06:15:09 10° SSE 06:17:32 14° SE 06:19:55 10° E daylight
25 Sep - 07:54:27 10° SW 07:59:15 82° NW 08:04:02 10° NE daylight
25 Sep - 09:38:38 10° WNW 09:42:00 19° NNW 09:45:23 10° NNE daylight
25 Sep - 13:07:07 10° NNW 13:09:44 15° NNE 13:12:19 10° NE daylight
25 Sep - 14:48:12 10° NW 14:52:46 52° NE 14:57:17 10° ESE daylight
25 Sep - 16:31:07 10° W 16:34:40 22° SW 16:38:13 10° S visible
26 Sep - 06:38:55 10° SSW 06:43:18 36° SE 06:47:39 10° ENE daylight
26 Sep - 08:21:03 10° W 08:25:27 36° NNW 08:29:52 10° NE daylight
26 Sep - 10:06:46 10° NW 10:08:45 12° NNW 10:10:45 10° N daylight
26 Sep - 11:52:03 10° N 11:52:46 10° N 11:53:29 10° NNE daylight
26 Sep - 13:32:33 10° NNW 13:36:22 24° NNE 13:40:09 10° E daylight
26 Sep - 15:14:14 10° NW 15:18:51 64° SW 15:23:25 10° SE daylight
27 Sep - 05:25:38 10° SSE 05:27:34 12° SE 05:29:29 10° ESE daylight
27 Sep - 07:04:26 10° SW 07:09:14 89° NNW 07:14:01 10° NE daylight
27 Sep - 08:48:25 10° WNW 08:51:56 20° NNW 08:55:27 10° NNE daylight
27 Sep - 12:17:09 10° NNW 12:19:39 14° NNE 12:22:07 10° NE daylight
27 Sep - 13:58:13 10° NW 14:02:45 47° NE 14:07:13 10° ESE daylight
27 Sep - 15:40:58 10° WNW 15:44:42 24° SW 15:48:25 10° S daylight
28 Sep - 05:49:01 10° SSW 05:53:18 32° SE 05:57:33 10° ENE daylight
28 Sep - 07:30:55 10° WSW 07:35:25 39° NW 07:39:54 10° NE daylight
28 Sep - 09:16:28 10° NW 09:18:39 13° NNW 09:20:50 10° NNE daylight
28 Sep - 11:02:09 10° N 11:02:40 10° N 11:03:10 10° NNE daylight
28 Sep - 12:42:36 10° NNW 12:46:18 23° NNE 12:50:00 10° E daylight
28 Sep - 14:24:12 10° NW 14:28:52 71° SW 14:33:27 10° SE daylight
29 Sep - 04:36:20 10° SE 04:37:35 11° SE 04:38:49 10° ESE daylight
29 Sep - 06:14:25 10° SW 06:19:12 84° SE 06:24:00 10° NE daylight
29 Sep - 07:58:13 10° WNW 08:01:52 21° NNW 08:05:30 10° NNE daylight
29 Sep - 11:27:12 10° NNW 11:29:33 13° NNE 11:31:54 10° NE daylight
29 Sep - 13:08:13 10° NW 13:12:43 44° NE 13:17:09 10° ESE daylight
29 Sep - 14:50:49 10° WNW 14:54:44 27° SW 14:58:36 10° S daylight
30 Sep - 04:59:09 10° SSW 05:03:18 29° SE 05:07:27 10° ENE daylight
30 Sep - 06:40:48 10° WSW 06:45:22 42° NW 06:49:55 10° NE daylight
30 Sep - 08:26:11 10° NW 08:28:33 13° NNW 08:30:55 10° NNE daylight
30 Sep - 10:12:17 10° N 10:12:34 10° N 10:12:49 10° N daylight
30 Sep - 11:52:37 10° NNW 11:56:15 21° NNE 11:59:50 10° ENE daylight
30 Sep - 13:34:10 10° NW 13:38:51 79° SW 13:43:29 10° SE daylight
01 Oct - 05:24:24 10° SW 05:29:11 76° SE 05:33:59 10° NE daylight
01 Oct - 07:08:01 10° WNW 07:11:47 22° NNW 07:15:33 10° NNE daylight
01 Oct - 08:54:49 10° NNW 08:55:27 10° N 08:56:05 10° N daylight
01 Oct - 10:37:14 10° NNW 10:39:28 13° NNE 10:41:40 10° NE daylight
01 Oct - 12:18:13 10° NW 12:22:41 40° NE 12:27:04 10° ESE daylight
01 Oct - 14:00:41 10° WNW 14:04:45 30° SW 14:08:47 10° SSE daylight
